KF4URA Weather Reports


time (UTC)temp
C
wind
direction
speed
KPH
gust
KPH
rain 1hr
cm
rain 24hr
cm
rain mn
cm
humidity
%
barometer
mb
20260508175419 18 269 1.6 8.0 0.00 0.00 0.00 51 1011.3
20260508174357 18 286 1.6 8.0 0.00 0.00 0.00 54 1011.5
20260508173421 17 229 0.0 6.4 0.00 0.00 0.00 54 1011.7
20260508172427 17 193 0.0 3.2 0.00 0.00 0.00 54 1012.0
20260508171359 16 270 0.0 3.2 0.00 0.00 0.00 56 1012.3
20260508170418 16 275 0.0 0.0 0.00 0.00 0.00 58 1012.5
20260508165352 16 275 0.0 1.6 0.00 0.00 0.00 56 1012.6
20260508164322 16 282 0.0 8.0 0.00 0.00 0.00 54 1012.6
20260508162157 15 248 0.0 6.4 0.00 0.00 0.00 57 1012.8
20260508161207 15 297 1.6 11.3 0.00 0.00 0.00 57 1013.0
20260508160222 15 277 3.2 11.3 0.00 0.00 0.00 56 1013.1
20260508155154 15 269 3.2 9.7 0.00 0.00 0.00 57 1013.2
20260508154143 14 202 1.6 9.7 0.00 0.00 0.00 59 1013.3
20260508153151 13 190 0.0 4.8 0.00 0.00 0.00 60 1013.2
20260508152200 13 201 0.0 0.0 0.00 0.00 0.00 63 1013.2
20260508151203 12 219 0.0 0.0 0.00 0.00 0.00 65 1013.4
20260508150157 12 198 0.0 6.4 0.00 0.00 0.00 64 1013.4
20260508145203 12 215 0.0 4.8 0.00 0.00 0.00 66 1013.6
20260508144149 12 272 0.0 3.2 0.00 0.00 0.00 66 1013.6
20260508143135 11 198 0.0 0.0 0.00 0.00 0.00 66 1013.6
20260508142111 11 200 0.0 0.0 0.00 0.00 0.00 67 1013.7
20260508141048 11 216 0.0 3.2 0.00 0.00 0.00 66 1013.7
20260508140107 11 216 0.0 1.6 0.00 0.00 0.00 68 1013.5
20260508135110 11 215 0.0 4.8 0.00 0.00 0.00 66 1013.7
20260508132924 11 198 0.0 0.0 0.00 0.00 0.00 69 1013.6
20260508131900 11 198 0.0 6.4 0.00 0.00 0.00 69 1013.5
20260508130911 11 198 0.0 6.4 0.00 0.00 0.00 68 1013.7
20260508125844 10 194 0.0 4.8 0.00 0.00 0.00 69 1013.6
20260508124811 10 193 0.0 4.8 0.00 0.00 0.00 71 1013.5
20260508123813 10 246 0.0 3.2 0.00 0.00 0.00 72 1013.5
20260508122814 10 247 0.0 3.2 0.00 0.00 0.00 72 1013.4
20260508121815 9 248 0.0 1.6 0.00 0.00 0.00 74 1013.4
20260508120741 9 248 0.0 1.6 0.00 0.00 0.00 74 1013.4
20260508115746 8 250 0.0 3.2 0.00 0.00 0.00 74 1013.4
20260508114742 8 254 0.0 3.2 0.00 0.00 0.00 76 1013.4
20260508113757 8 254 0.0 1.6 0.00 0.00 0.00 77 1013.3
20260508110506 6 260 0.0 0.0 0.00 0.00 0.00 86 1013.2
20260508105459 5 260 0.0 0.0 0.00 0.00 0.00 88 1013.1
20260508104457 5 261 0.0 0.0 0.00 0.00 0.00 89 1013.1
20260508103456 5 261 0.0 0.0 0.00 0.00 0.00 89 1013.0
20260508102429 5 261 0.0 0.0 0.00 0.00 0.00 89 1013.0
20260508101411 5 261 0.0 0.0 0.00 0.00 0.00 88 1012.9
20260508100426 5 261 0.0 0.0 0.00 0.00 0.00 88 1012.8
20260508095411 5 261 0.0 0.0 0.00 0.00 0.00 88 1012.8
20260508094348 5 261 0.0 0.0 0.00 0.00 0.00 88 1012.8
20260508092235 6 261 0.0 0.0 0.00 0.00 0.00 89 1012.9
20260508091211 6 261 0.0 0.0 0.00 0.00 0.00 89 1012.9
20260508090225 6 261 0.0 0.0 0.00 0.00 0.00 89 1013.0
20260508085234 6 261 0.0 0.0 0.00 0.00 0.00 88 1013.1
20260508081942 6 261 0.0 0.0 0.00 0.00 0.00 86 1013.1
20260508080958 7 261 0.0 0.0 0.00 0.00 0.00 85 1013.0
20260508075948 7 261 0.0 0.0 0.00 0.00 0.00 85 1013.0
20260508074917 7 261 0.0 0.0 0.00 0.00 0.00 84 1013.1
20260508073916 7 261 0.0 0.0 0.00 0.00 0.00 85 1013.1
20260508072918 7 261 0.0 0.0 0.00 0.00 0.00 85 1013.1
20260508071903 8 261 0.0 0.0 0.00 0.00 0.00 84 1013.2
20260508070905 8 261 0.0 0.0 0.00 0.00 0.00 84 1013.3
20260508065926 8 261 0.0 0.0 0.00 0.00 0.00 83 1013.5
20260508064943 8 261 0.0 0.0 0.00 0.00 0.00 82 1013.5
20260508061701 9 261 0.0 0.0 0.00 0.00 0.00 79 1014.0
20260508060718 8 261 0.0 0.0 0.00 0.00 0.00 78 1013.9
20260508055657 8 261 0.0 0.0 0.00 0.00 0.00 79 1014.0
20260508044924 8 260 0.0 0.0 0.00 0.00 0.00 82 1013.5